Probability
10 6 6 10 12 10 9 10 7 3 1 1 1 0 0 0 0 0 0 0 0 0 0 0 0 0 0 0 0 0 0 0 0 0 0 0 0 0
8 5 4 7 8 7 7 8 7 3 1 0 0 0 0 0 0 0 0 0 0 0 0 0 0 0 0 0 0 0 0 0 0 0 0 0 0 0
4 2 2 3 3 4 5 6 5 3 1 0 0 0 0 0 0 0 0 0 0 0 0 0 0 0 0 0 0 0 0 0 0 0 0 0 0 0
1 0 0 0 0 1 2 2 3 2 1 0 0 0 0 0 0 0 0 0 0 0 0 0 0 0 0 0 0 0 0 0 0 0 0 0 0 0
0 0 0 0 0 0 0 0 1 1 0 0 0 0 0 0 0 0 0 0 0 0 0 0 0 0 0 0 0 0 0 0 0 0 0 0 0 0
0 0 0 0 0 0 0 0 0 0 0 0 0 0 0 0 0 0 0 0 0 0 0 0 0 0 0 0 0 0 0 0 0 0 0 0 0 0
0 0 0 0 0 0 0 0 0 0 0 0 0 0 0 0 0 0 0 0 0 0 0 0 0 0 0 0 0 0 0 0 0 0 0 0 0 0
0 0 0 0 0 0 0 0 0 0 0 0 0 0 0 0 0 0 0 0 0 0 0 0 0 0 0 0 0 0 0 0 0 0 0 0 0 0
0 0 0 0 0 0 0 0 0 0 0 0 0 0 0 0 0 0 0 0 0 0 0 0 0 0 0 0 0 0 0 0 0 0 0 0 0 0
0 0 0 0 0 0 0 0 0 0 0 0 0 0 0 0 0 0 0 0 0 0 0 0 0 0 0 0 0 0 0 0 0 0 0 0 0 0
0 0 0 0 0 0 0 0 0 0 0 0 0 0 0 0 0 0 0 0 0 0 0 0 0 0 0 0 0 0 0 0 0 0 0 0 0 0
0 0 0 0 0 0 0 0 0 0 0 0 0 0 0 0 0 0 0 0 0 0 0 0 0 0 0 0 0 0 0 0 0 0 0 0 0 0
0 0 0 0 0 0 0 0 0 0 0 0 0 0 0 0 0 0 0 0 0 0 0 0 0 0 0 0 0 0 0 0 0 0 0 0 0 0
0 0 0 0 0 0 0 0 0 0 0 0 0 0 0 0 0 0 0 0 0 0 0 0 0 0 0 0 0 0 0 0 0 0 0 0 0 0
0 0 0 0 0 0 0 0 0 0 0 0 0 0 0 0 0 0 0 0 0 0 0 0 0 0 0 0 0 0 0 0 0 0 0 0 0 0
0 0 0 0 0 0 0 0 0 0 0 0 0 0 0 0 0 0 0 0 0 0 0 0 0 0 0 0 0 0 0 0 0 0 0 0 0 0
0 0 0 0 0 0 0 0 0 0 0 0 0 0 0 0 0 0 0 0 0 0 0 0 0 0 0 0 0 0 0 0 0 0 0 0 0 0
0 0 0 0 0 0 0 0 0 0 0 0 0 0 0 0 0 0 0 0 0 0 0 0 0 0 0 0 0 0 0 0 0 0 0 0 0 0
0 0 0 0 0 0 0 0 0 0 0 0 0 0 0 0 0 0 0 0 0 0 0 0 0 0 0 0 0 0 0 0 0 0 0 0 0 0
0 0 0 0 0 0 0 0 0 0 0 0 0 0 0 0 0 0 0 0 0 0 0 0 0 0 0 0 0 0 0 0 0 0 0 0 0 0
0 0 0 0 0 0 0 0 0 0 0 0 0 0 0 0 0 0 0 0 0 0 0 0 0 0 0 0 0 0 0 0 0 0 0 0 0 0
0 0 0 0 0 0 0 0 0 0 0 0 0 0 0 0 0 0 0 0 0 0 0 0 0 0 0 0 0 0 0 0 0 0 0 0 0 0
0 0 0 0 0 0 0 0 0 0 0 0 0 0 0 0 0 0 0 0 0 0 0 0 0 0 0 0 0 0 0 0 0 0 0 0 0 0
Wind_Speed
6 7 7 6 6 5 5 5 5 4 3 2 1 2 2 3 4 4 4 6 6 5 5 4 3 3 3 2 2 1 0 0 1 2 3 5 7 9
5 5 5 4 4 5 5 4 4 4 3 2 2 2 3 5 6 5 6 9 9 8 7 5 4 3 3 2 1 1 1 1 1 2 3 4 5 7
4 4 4 3 3 3 4 4 3 4 6 4 2 3 4 6 5 5 5 5 6 9 8 7 5 4 3 2 1 1 1 1 2 3 4 5 6 8
3 2 2 2 3 3 4 5 5 5 8 8 3 3 4 4 5 6 5 5 5 8 9 8 7 5 4 3 2 1 0 1 2 3 5 6 7 9
0 1 2 4 4 4 5 6 6 7 7 9 5 3 3 3 5 5 6 4 5 6 7 7 7 6 5 4 3 2 1 2 3 4 5 6 7 9
3 3 3 4 5 6 6 8 9 9 9 9 7 4 3 3 4 4 4 4 4 5 5 5 6 7 7 6 5 4 2 2 4 5 5 6 7 9
6 6 6 8 9 7 8 8 9 9 8 8 6 5 4 3 4 2 3 3 3 4 3 4 4 4 4 5 6 6 5 4 5 5 6 7 8 10
7 8 8 10 13 16 16 13 11 10 9 7 6 6 4 3 3 3 2 2 3 4 3 3 3 3 3 3 6 7 6 6 6 7 7 8 9 10
6 7 7 9 10 11 15 16 14 13 10 7 8 5 4 3 3 4 3 3 2 3 2 2 3 3 3 3 6 8 8 8 8 8 8 9 10 11
7 7 8 8 8 10 11 11 10 9 8 7 7 5 4 3 3 3 3 3 2 2 3 2 3 3 3 3 6 8 9 9 9 9 9 10 10 12
7 7 7 7 10 11 12 11 10 9 11 13 11 10 9 7 4 4 4 4 3 3 3 2 3 3 3 2 4 8 10 10 11 11 11 11 11 12
6 6 8 8 9 10 10 10 10 7 7 9 9 9 9 9 9 5 3 3 2 2 4 3 3 3 3 2 3 5 7 8 10 10 11 12 12 8
5 4 4 9 10 10 9 8 9 8 8 8 7 7 6 6 6 5 4 3 3 2 3 2 2 2 2 3 3 5 6 7 8 8 9 11 12 9
6 5 5 10 11 11 9 11 12 9 7 6 6 5 5 4 4 4 5 4 3 2 2 2 1 2 2 3 4 5 6 6 7 8 8 10 9 10
5 8 9 11 11 9 11 11 9 7 6 6 5 4 2 2 2 3 4 4 4 4 4 3 2 1 1 2 3 5 5 6 7 8 8 8 7 7
7 9 11 11 9 9 8 6 5 5 5 5 4 3 2 3 3 3 3 3 4 4 5 5 4 3 2 2 2 4 5 6 8 8 8 7 6 6
9 6 5 5 5 5 5 5 4 5 5 4 4 4 4 4 3 3 3 3 3 3 5 5 4 3 2 2 3 5 6 6 7 8 7 7 6 7
9 6 6 5 6 6 6 4 4 4 4 4 4 4 4 4 3 3 3 3 3 3 3 4 4 3 2 2 2 5 6 6 7 8 6 6 7 7
7 7 6 6 6 5 5 5 4 4 4 4 4 4 3 3 3 3 3 3 3 3 3 3 4 4 5 5 4 3 5 6 7 7 7 6 6 7
6 8 7 7 6 6 5 5 5 5 4 4 4 4 3 3 3 3 2 2 2 2 2 3 3 3 3 3 4 4 5 6 6 7 7 5 5 5
7 7 7 7 6 6 6 5 6 6 5 5 4 4 4 3 3 3 2 2 2 2 2 3 3 4 2 1 2 4 4 5 5 5 7 6 6 7
9 8 7 7 7 6 6 6 6 6 6 5 5 5 4 4 4 4 3 2 1 1 1 2 3 2 2 3 4 4 5 6 5 4 6 6 5 6
9 8 8 7 7 6 6 7 8 7 6 6 5 5 5 4 4 4 3 3 2 1 1 1 2 2 3 3 3 3 6 6 5 5 6 9 9 7
Wind_Direction
251 245 237 224 214 209 201 195 188 187 189 162 117 66 93 96 100 106 107 107 108 105 108 118 127 138 146 150 158 166 177 307 305 290 276 265 259 256
248 243 235 220 208 201 194 190 187 168 153 116 99 87 88 92 87 97 95 91 83 83 85 94 107 121 132 142 154 173 195 241 282 286 283 283 279 274
245 233 228 204 192 183 171 164 156 140 131 109 78 75 81 92 83 82 87 84 78 73 74 78 85 94 105 114 126 152 199 258 282 286 285 283 281 278
240 215 212 174 154 153 152 146 138 131 130 126 101 74 73 89 87 81 76 78 79 72 68 67 68 73 78 77 77 69 354 312 297 293 290 287 284 281
175 140 139 140 135 132 128 125 121 116 114 119 110 81 72 72 82 75 69 58 66 64 62 60 56 57 59 55 50 39 3 322 301 292 290 290 289 288
60 72 86 116 129 126 119 117 115 111 109 112 110 95 79 64 81 80 69 50 45 35 36 43 45 48 46 40 34 27 8 330 307 297 292 288 286 285
61 63 70 89 101 108 113 113 114 113 113 112 111 102 87 77 76 71 83 68 54 29 17 26 28 34 35 32 29 19 5 346 325 306 295 290 288 284
66 63 67 75 85 87 92 97 109 118 117 113 112 111 101 91 87 87 86 71 50 14 10 10 18 23 20 29 19 12 5 352 335 321 309 300 295 291
74 72 75 77 84 92 89 86 84 90 104 119 119 117 113 116 112 92 81 80 72 360 358 7 358 360 1 16 11 7 0 350 339 328 318 310 304 298
72 79 87 86 91 99 97 88 80 73 84 95 105 104 106 110 101 103 104 96 80 38 13 13 347 341 339 354 8 7 1 353 343 333 326 318 311 303
69 72 90 95 99 104 102 98 90 80 76 83 85 87 87 86 96 95 81 80 63 32 17 13 344 331 328 340 354 359 354 349 342 333 328 324 319 310
80 70 77 98 106 109 112 113 108 101 99 88 75 67 69 65 60 70 94 92 78 42 11 5 358 352 343 338 337 349 352 345 339 331 328 327 328 321
110 97 90 105 107 107 110 115 123 118 104 97 88 78 70 63 57 56 60 81 84 60 6 359 -0 2 345 321 323 337 347 347 345 341 335 331 329 327
129 123 117 114 110 107 106 116 117 111 105 99 92 82 74 63 55 57 60 64 68 64 3 8 18 2 353 346 335 333 335 347 350 345 341 336 334 331
132 133 125 114 103 99 108 115 114 111 110 105 100 88 72 59 60 64 54 58 63 54 40 32 33 22 29 2 339 337 333 337 349 347 344 347 348 345
123 121 111 100 96 99 100 97 99 109 114 113 108 94 83 76 63 53 51 39 49 35 29 30 25 31 35 8 354 351 348 340 341 344 341 345 351 353
133 119 114 113 111 107 103 103 107 110 106 110 113 108 97 86 69 53 58 58 56 30 12 8 10 26 43 12 5 360 349 347 345 343 341 345 354 355
135 138 140 142 142 139 135 126 122 124 121 123 119 116 111 101 89 75 71 69 62 39 22 6 2 17 34 60 24 351 352 349 344 345 348 345 351 355
142 153 155 157 154 152 150 146 145 142 136 136 133 131 126 117 108 96 85 75 60 43 27 14 16 23 23 14 7 16 351 343 346 353 355 350 344 343
160 163 165 164 162 162 163 157 148 146 148 149 147 147 145 137 129 119 105 91 71 47 34 30 22 11 2 345 331 337 357 353 349 350 347 339 333 322
171 170 169 168 169 169 168 165 162 164 163 160 162 162 159 152 146 142 131 115 93 60 36 17 344 318 280 294 345 358 359 3 1 352 345 344 348 356
176 175 174 174 173 171 168 167 168 170 172 174 174 173 171 170 166 164 160 149 130 93 41 13 360 12 36 29 17 358 354 357 4 13 28 19 357 354
179 179 176 176 175 172 170 174 178 182 184 184 181 180 178 179 178 174 171 167 156 139 93 43 34 37 34 24 15 9 7 4 360 8 21 13 11 10